[[{"header":{"parameterUnit":"m.s-1","parameterCategory":1,"la1":30.2991,"la2":30.254,"lo1":-89.0895,"lo2":-89.0444,"dy":0.0017,"dx":0.0017,"nx":28,"ny":28,"refTime":"2024-07-12T03:00:00:Z","depth":0,"parameterNumber":2,"parameterNumberName":"U-component_of_WINDS"},"data":[0,0,0,0,0,0,0,0,0,0,0,0,0,0,0,0,0,0,0,0,0,0,0,0,0,0,0,0,0,0,0,0,0,0,0,0,0,0,0,0,0,0,0,0,0,0,0,0,0,0,0,0,0,0,0,0,0,0,0.8038,0.804,0,0.8165,0.8166,0.8168,0.8161,0.8159,0.8157,0.8156,0.8291,0.8296,0.8301,0,0,0,0,0,0,0,0,0,0,0,0,0,0.7796,0.7801,0.8038,0.804,0.8041,0.8164,0.8166,0.8168,0.8161,0.8159,0.8157,0.8155,0.8289,0.8295,0.8301,0,0,0,0,0,0,0,0,0,0,0,0,0,0.791,0.7802,0.8038,0.8053,0.8055,0.8164,0.8166,0.8168,0.8162,0.8159,0.8156,0.8154,0.8287,0.8294,0.8302,0.8406,0,0,0.8327,0.833,0,0,0,0,0,0,0,0,0.7903,0.7919,0.8049,0.8052,0.8055,0.8144,0.813,0.8248,0.8162,0.8122,0.8156,0.8152,0.8244,0.8256,0.8286,0.8413,0.8418,0.8327,0.8332,0.8336,0.8338,0,0,0,0,0,0,0,0.7896,0.7913,0.8088,0.8051,0.8055,0.8055,0.8068,0.8153,0.8197,0.8125,0.8125,0.8139,0.8246,0.8278,0.8289,0.842,0.8327,0.8334,0.8339,0.8342,0.8639,0.8642,0,0,0,0,0,0,0.7884,0.7907,0.8084,0.8092,0.7971,0.8061,0.8076,0.8118,0.8196,0.8205,0.8142,0.8139,0.8266,0.8279,0.8293,0.842,0.8335,0.8343,0.8347,0.8636,0.864,0.8643,0,0,0,0,0,0,0.7879,0.79,0.8079,0.8,0.8022,0.8068,0.8116,0.8122,0.8155,0.8209,0.8217,0.8166,0.8264,0.8282,0.8378,0.8425,0.8346,0.8354,0.8632,0.8637,0.8641,0.8674,0,0,0,0,0,0,0.7872,0.7898,0.7937,0.8,0.8027,0.816,0.8119,0.8127,0.8168,0.8165,0.8234,0.8243,0.8263,0.8366,0.8386,0.8434,0.836,0.8628,0.8634,0.864,0.8669,0.868,0.8688,0,0,0,0,0,0.7863,0.7942,0.7939,0.796,0.8076,0.8163,0.8178,0.8199,0.8171,0.8212,0.8246,0.8241,0.8416,0.8376,0.8398,0.845,0.8625,0.8633,0.8639,0.8665,0.8678,0.8688,0,0,0,0,0,0,0.7885,0.7951,0.7948,0.8049,0.81,0.8161,0.8213,0.8211,0.8272,0.8268,0.8292,0.8308,0.8404,0.8436,0.839,0.8554,0.8518,0.8529,0.8529,0.8542,0.8551,0.8541,0.8367,0,0,0,0,0,0.7901,0.7964,0.8019,0.8104,0.8129,0.8167,0.8205,0.8217,0.8271,0.8293,0.8335,0.839,0.8457,0.8501,0.8566,0.8674,0.8689,0.872,0.873,0.8737,0.8747,0.8807,0.8821,0.8666,0.8666,0.8666,0,0,0.7936,0.798,0.8019,0.8109,0.815,0.8217,0.8185,0.8257,0.8307,0.8305,0.8397,0.843,0.8492,0.8594,0.8641,0.8624,0.8794,0.8746,0.8752,0.8758,0.8816,0.883,0.8843,0.8671,0.867,0.8669,0,0,0.8034,0.8073,0.8147,0.8189,0.825,0.8274,0.8292,0.8354,0.8374,0.8467,0.8466,0.8527,0.8643,0.8688,0.8725,0.8839,0.8837,0.886,0.891,0.8968,0.898,0.8991,0.9032,0.9046,0.887,0.887,0.887,0,0.807,0.8168,0.8187,0.8259,0.8299,0.8298,0.8374,0.8414,0.8494,0.8523,0.8502,0.8647,0.8689,0.8801,0.8829,0.886,0.8882,0.8852,0.8976,0.8988,0.8998,0.9037,0.9053,0.8872,0.8872,0.8872,0.8872,0,0.821,0.8279,0.8332,0.8407,0.8454,0.8528,0.8558,0.8603,0.861,0.8637,0.8732,0.8782,0.8857,0.8884,0.8893,0.8998,0.8986,0.8971,0.8934,0.9015,0.9052,0.9067,0.8876,0.8875,0.8874,0.8874,0,0,0.8326,0.8409,0.8428,0.8463,0.853,0.8584,0.8659,0.873,0.8768,0.8824,0.8888,0.8985,0.8971,0.9014,0.9028,0.9078,0.9165,0.9057,0.9059,0.9075,0.9284,0.9295,0.9312,0.9163,0.9166,0.9169,0.9279,0,0.843,0.856,0.8578,0.8694,0.8758,0.8757,0.8822,0.8872,0.8898,0.8958,0.8988,0.9057,0.9033,0.9059,0.9109,0.9144,0.9208,0.9136,0.9224,0.9227,0.9208,0.9332,0.9344,0.9446,0.9294,0.9296,0.9298,0,0.857,0.8627,0.8748,0.8806,0.8834,0.8892,0.8959,0.9015,0.9071,0.9087,0.9135,0.9142,0.922,0.918,0.9289,0.924,0.9277,0.93,0.9304,0.9314,0.9268,0.9345,0.9479,0.9494,0.9321,0.9319,0.9318,0,0.8642,0.875,0.8836,0.8865,0.8935,0.8976,0.9007,0.9061,0.9102,0.9162,0.9189,0.9257,0.9295,0.9348,0.9374,0.9342,0.9481,0.9443,0.9498,0.9497,0.9527,0.9525,0.9669,0.9551,0.9551,0.955,0.955,0,0.8757,0.8832,0.8869,0.8922,0.9006,0.9026,0.9109,0.914,0.9187,0.9247,0.9251,0.9308,0.9338,0.94,0.9421,0.9508,0.9525,0.9541,0.9546,0.9541,0.9539,0.9566,0.9559,0.9554,0.9554,0.9553,0.9552,0,0.8852,0.888,0.8974,0.9032,0.9049,0.9108,0.9158,0.921,0.9236,0.9312,0.9332,0.9373,0.9446,0.9476,0.9567,0.958,0.968,0.968,0.9661,0.9662,0.9715,0.971,0.9882,0.9905,0.9771,0.9773,0.9774,0,0.8924,0.8981,0.9044,0.9084,0.9116,0.918,0.9222,0.9245,0.9289,0.9357,0.9401,0.9473,0.9532,0.9648,0.9688,0.9756,0.9758,0.9813,0.9768,0.9761,0.9759,0.9755,0.9761,0.9822,0.9823,0.9824,0.9825,0,0.9048,0.9059,0.9118,0.9183,0.9232,0.9285,0.9336,0.9369,0.94,0.9449,0.9522,0.9568,0.9658,0.973,0.9801,0.9835,0.9836,0.9839,0.9855,0.985,0.9837,0.9845,0.9683,0.9835,0.9834,0.9833,0.9833,0.9832,0.9134,0.9184,0.9236,0.9302,0.9343,0.9391,0.9442,0.9474,0.9535,0.9609,0.9619,0.9698,0.9753,0.9848,0.9885,0.9947,0.9933,0.9957,0.9963,0.9969,0.9972,0.9827,0.996,0.996,0.996,0.996,0.996,0,0.9258,0.9291,0.9352,0.9422,0.9475,0.9469,0.9525,0.957,0.9638,0.9688,0.9745,0.983,0.9899,0.9944,1.0014,1.0056,1.0058,1.0073,1.0071,1.0079,0.998,0.9959,1.007,1.007,1.007,1.007,1.007,1.007,0.9329,0.9413,0.943,0.9536,0.9569,0.9644,0.9677,0.9721,0.9761,0.9855,0.9912,0.9939,0.9988,1.0061,1.0125,1.0137,1.0162,1.0179,1.019,1.0097,1.0086,1.0075,1.0055,1.0185,1.0185,1.0283,1.0284,1.0284]},{"header":{"parameterUnit":"m.s-1","parameterCategory":1,"la1":30.2991,"la2":30.254,"lo1":-89.0895,"lo2":-89.0444,"dy":0.0017,"dx":0.0017,"nx":28,"ny":28,"refTime":"2024-07-12T03:00:00:Z","depth":0,"parameterNumber":3,"parameterNumberName":"V-component_of_WINDS"},"data":[0,0,0,0,0,0,0,0,0,0,0,0,0,0,0,0,0,0,0,0,0,0,0,0,0,0,0,0,0,0,0,0,0,0,0,0,0,0,0,0,0,0,0,0,0,0,0,0,0,0,0,0,0,0,0,0,0,0,2.5189,2.5189,0,2.5181,2.5181,2.5181,2.5179,2.5179,2.5179,2.5179,2.5168,2.5168,2.5167,0,0,0,0,0,0,0,0,0,0,0,0,0,2.5198,2.5198,2.5189,2.5189,2.5188,2.5181,2.5181,2.518,2.5178,2.5179,2.5179,2.5179,2.5168,2.5168,2.5167,0,0,0,0,0,0,0,0,0,0,0,0,0,2.5192,2.5198,2.5189,2.5187,2.5186,2.5181,2.5181,2.518,2.5178,2.5179,2.5179,2.5179,2.5168,2.5168,2.5167,2.5162,0,0,2.5166,2.5165,0,0,0,0,0,0,0,0,2.5192,2.5192,2.5187,2.5187,2.5186,2.5181,2.518,2.5174,2.5178,2.5181,2.5179,2.5179,2.5172,2.5171,2.5169,2.5162,2.5161,2.5166,2.5165,2.5165,2.5165,0,0,0,0,0,0,0,2.5193,2.5192,2.5185,2.5187,2.5187,2.5185,2.5184,2.5179,2.5176,2.5181,2.5181,2.518,2.5172,2.517,2.5169,2.5161,2.5166,2.5165,2.5165,2.5165,2.5146,2.5145,0,0,0,0,0,0,2.5194,2.5192,2.5186,2.5185,2.519,2.5184,2.5184,2.5182,2.5176,2.5175,2.518,2.518,2.5171,2.517,2.5169,2.516,2.5165,2.5165,2.5164,2.5146,2.5145,2.5145,0,0,0,0,0,0,2.5194,2.5194,2.5186,2.5189,2.5188,2.5184,2.5183,2.5182,2.518,2.5176,2.5175,2.5179,2.5171,2.5169,2.5163,2.516,2.5164,2.5164,2.5146,2.5146,2.5145,2.5145,0,0,0,0,0,0,2.5195,2.5194,2.5193,2.5189,2.5188,2.5182,2.5183,2.5182,2.518,2.518,2.5174,2.5173,2.5171,2.5164,2.5163,2.516,2.5164,2.5146,2.5146,2.5145,2.5146,2.5145,2.5145,0,0,0,0,0,2.5195,2.5193,2.5193,2.5192,2.5187,2.5182,2.5181,2.5179,2.518,2.5178,2.5174,2.5174,2.5161,2.5164,2.5162,2.5159,2.5146,2.5146,2.5145,2.5146,2.5145,2.5145,0,0,0,0,0,0,2.5197,2.5193,2.5192,2.519,2.5186,2.5182,2.518,2.5179,2.5175,2.5175,2.5171,2.517,2.5163,2.516,2.5163,2.5152,2.5153,2.5153,2.5154,2.5153,2.5153,2.5153,2.5163,0,0,0,0,0,2.5197,2.5195,2.5191,2.5189,2.5187,2.5184,2.5182,2.518,2.5176,2.5174,2.517,2.5165,2.516,2.5157,2.5152,2.5145,2.5142,2.5142,2.5141,2.5141,2.514,2.5133,2.5132,2.5144,2.5144,2.5144,0,0,2.5198,2.5195,2.5194,2.5189,2.5187,2.5182,2.5183,2.5179,2.5175,2.5174,2.5167,2.5164,2.5158,2.5151,2.5147,2.5148,2.5136,2.514,2.514,2.5139,2.5132,2.5131,2.513,2.5143,2.5144,2.5144,0,0,2.5196,2.5195,2.5192,2.5189,2.5184,2.5182,2.5181,2.5176,2.5173,2.5167,2.5165,2.5159,2.5151,2.5146,2.5142,2.5136,2.5134,2.5134,2.5131,2.5125,2.5124,2.5123,2.5118,2.5117,2.5133,2.5133,2.5133,0,2.5197,2.5193,2.5191,2.5186,2.5183,2.5181,2.5177,2.5173,2.5167,2.5164,2.5165,2.5152,2.5148,2.5139,2.5137,2.5135,2.5132,2.5135,2.5124,2.5124,2.5123,2.5118,2.5117,2.5133,2.5133,2.5133,2.5133,0,2.5193,2.5189,2.5187,2.5181,2.5177,2.5173,2.5169,2.5165,2.5163,2.5159,2.5151,2.5146,2.5138,2.5136,2.5134,2.5125,2.5125,2.5125,2.5127,2.5121,2.5117,2.5116,2.5133,2.5133,2.5133,2.5133,0,0,2.5194,2.5185,2.5184,2.518,2.5174,2.517,2.5164,2.5158,2.5153,2.5148,2.5142,2.5134,2.5133,2.5128,2.5126,2.512,2.5112,2.512,2.512,2.5117,2.5098,2.5098,2.5096,2.5111,2.511,2.511,2.5098,0,2.5191,2.5182,2.5178,2.517,2.5165,2.5162,2.5156,2.5151,2.5147,2.514,2.5135,2.5128,2.5129,2.5126,2.512,2.5114,2.5108,2.5115,2.5103,2.5102,2.5103,2.5094,2.5094,2.5083,2.5097,2.5096,2.5096,0,2.5186,2.5181,2.5172,2.5164,2.5162,2.5157,2.5149,2.5144,2.5136,2.5133,2.5127,2.5124,2.5115,2.5117,2.5103,2.5108,2.5103,2.5098,2.5098,2.5096,2.5098,2.509,2.508,2.5078,2.5094,2.5094,2.5094,0,2.5186,2.5176,2.5169,2.5166,2.5157,2.5153,2.5149,2.5141,2.5136,2.5128,2.5125,2.5116,2.5111,2.5103,2.5096,2.5099,2.5082,2.5084,2.5078,2.5078,2.5074,2.5074,2.5061,2.5072,2.5072,2.5073,2.5073,0,2.5182,2.5177,2.5169,2.5164,2.5157,2.5152,2.5144,2.5139,2.5132,2.5125,2.5121,2.5114,2.5107,2.5098,2.5092,2.508,2.5079,2.5074,2.5073,2.5074,2.5074,2.507,2.507,2.5072,2.5072,2.5072,2.5072,0,2.5181,2.5176,2.5167,2.5158,2.5156,2.5151,2.5142,2.5136,2.5131,2.5122,2.5119,2.5111,2.51,2.5092,2.5079,2.5075,2.5061,2.5061,2.5064,2.5063,2.5056,2.5056,2.5039,2.5035,2.505,2.505,2.505,0,2.5179,2.5174,2.5164,2.5159,2.5155,2.5147,2.5142,2.5136,2.513,2.5119,2.5114,2.5103,2.5094,2.5076,2.5067,2.5056,2.5054,2.5048,2.5052,2.5052,2.5051,2.5051,2.5049,2.5048,2.5048,2.5047,2.5047,0,2.5174,2.5171,2.5164,2.5155,2.5149,2.5141,2.5134,2.513,2.5121,2.5114,2.5104,2.5096,2.5081,2.507,2.5057,2.505,2.5046,2.5046,2.5044,2.5045,2.5046,2.5043,2.5061,2.5047,2.5047,2.5047,2.5047,2.5047,2.5171,2.5166,2.5158,2.5149,2.5142,2.5134,2.5128,2.5121,2.5112,2.51,2.5096,2.5084,2.5073,2.5055,2.5048,2.5037,2.5037,2.5034,2.5033,2.5032,2.5031,2.5048,2.5035,2.5035,2.5035,2.5035,2.5035,0,2.5165,2.5159,2.5151,2.514,2.5132,2.513,2.5121,2.5114,2.5104,2.5094,2.5085,2.507,2.5058,2.5047,2.5034,2.5026,2.5024,2.5023,2.5023,2.5021,2.5033,2.5035,2.5025,2.5025,2.5025,2.5025,2.5025,2.5025,2.5161,2.5152,2.5147,2.5133,2.5126,2.5115,2.5109,2.5101,2.5093,2.5077,2.5067,2.506,2.5049,2.5034,2.5022,2.5018,2.5013,2.5012,2.5008,2.5019,2.502,2.5021,2.5024,2.5011,2.5011,2.4997,2.4996,2.4996]}]]